Year,Month,Day,Hour,Minute,Value (Times are PST for temperature in C)
2011,10,22,10,52,10.60
2011,10,22,10,53,10.70
2011,10,22,10,54,10.70
2011,10,22,10,55,10.80
2011,10,22,10,56,10.80
2011,10,22,10,57,10.90
2011,10,22,10,58,10.90
2011,10,22,10,59,10.90
2011,10,22,11,00,10.90
2011,10,22,11,01,10.90
2011,10,22,11,02,10.90
2011,10,22,11,03,10.90
2011,10,22,11,04,10.90
2011,10,22,11,05,11.00
2011,10,22,11,06,10.90
2011,10,22,11,07,11.00
2011,10,22,11,08,11.00
2011,10,22,11,09,11.00
2011,10,22,11,10,11.00
2011,10,22,11,11,10.90
2011,10,22,11,12,10.90
2011,10,22,11,13,10.90
2011,10,22,11,14,11.00
2011,10,22,11,15,11.00
2011,10,22,11,16,11.10
2011,10,22,11,17,11.10
2011,10,22,11,18,11.00
2011,10,22,11,19,11.10
2011,10,22,11,20,11.00
2011,10,22,11,21,11.00
2011,10,22,11,22,11.00
2011,10,22,11,23,11.00
2011,10,22,11,24,11.00
2011,10,22,11,25,11.00
2011,10,22,11,26,11.00
2011,10,22,11,27,11.00
2011,10,22,11,28,11.00
2011,10,22,11,29,11.00
2011,10,22,11,30,11.00
2011,10,22,11,31,11.00
2011,10,22,11,32,10.90
2011,10,22,11,33,10.90
2011,10,22,11,34,11.00
2011,10,22,11,35,11.00
2011,10,22,11,36,11.10
2011,10,22,11,37,11.20
2011,10,22,11,38,11.20
2011,10,22,11,39,11.20
2011,10,22,11,40,11.10
2011,10,22,11,41,11.10
2011,10,22,11,42,11.10
2011,10,22,11,43,11.10
2011,10,22,11,44,11.10
2011,10,22,11,45,11.20
2011,10,22,11,46,11.30
2011,10,22,11,47,11.30
2011,10,22,11,48,11.30
2011,10,22,11,49,11.30
2011,10,22,11,50,11.40
2011,10,22,11,51,11.40
2011,10,22,11,52,11.40
2011,10,22,11,53,11.40
2011,10,22,11,54,11.50
2011,10,22,11,55,11.50
2011,10,22,11,56,11.60
2011,10,22,11,57,11.60
2011,10,22,11,58,11.60
2011,10,22,11,59,11.60
2011,10,22,12,00,11.70
2011,10,22,12,01,11.70
2011,10,22,12,02,11.80
2011,10,22,12,03,11.80
2011,10,22,12,04,11.80
2011,10,22,12,05,11.80
2011,10,22,12,06,11.80
2011,10,22,12,07,11.80
2011,10,22,12,08,11.80
2011,10,22,12,09,11.80
2011,10,22,12,10,11.80
2011,10,22,12,11,11.80
2011,10,22,12,12,11.80
2011,10,22,12,13,11.90
2011,10,22,12,14,11.90
2011,10,22,12,15,11.90
2011,10,22,12,16,11.90
2011,10,22,12,17,11.90
2011,10,22,12,18,11.90
2011,10,22,12,19,11.90
2011,10,22,12,20,11.90
2011,10,22,12,21,11.90
2011,10,22,12,22,11.80
2011,10,22,12,23,11.80
2011,10,22,12,24,11.80
2011,10,22,12,25,11.80
2011,10,22,12,26,11.80
2011,10,22,12,27,11.70
2011,10,22,12,28,11.80
2011,10,22,12,29,11.80
2011,10,22,12,30,11.80
2011,10,22,12,31,11.80
2011,10,22,12,32,11.80
2011,10,22,12,33,11.80
2011,10,22,12,34,11.70
2011,10,22,12,35,11.70
2011,10,22,12,36,11.70
2011,10,22,12,37,11.60
2011,10,22,12,38,11.60
2011,10,22,12,39,11.60
2011,10,22,12,40,11.50
2011,10,22,12,41,11.50
2011,10,22,12,42,11.50
2011,10,22,12,43,11.40
2011,10,22,12,44,11.30
2011,10,22,12,45,11.30
2011,10,22,12,46,11.20
2011,10,22,12,47,11.20
2011,10,22,12,48,11.20
2011,10,22,12,49,11.20
2011,10,22,12,50,11.20
2011,10,22,12,51,11.10
2011,10,22,12,52,11.10
2011,10,22,12,53,11.10
2011,10,22,12,54,11.00
2011,10,22,12,55,11.00
2011,10,22,12,56,11.00
2011,10,22,12,57,11.00
2011,10,22,12,58,11.00
2011,10,22,12,59,11.10
2011,10,22,13,00,11.00
2011,10,22,13,01,11.00
2011,10,22,13,02,11.00
2011,10,22,13,03,11.00
2011,10,22,13,04,11.00
2011,10,22,13,05,11.00
2011,10,22,13,06,11.00
2011,10,22,13,07,11.10
2011,10,22,13,08,11.10
2011,10,22,13,09,11.10
2011,10,22,13,10,11.10
2011,10,22,13,11,11.10
2011,10,22,13,12,11.10
2011,10,22,13,13,11.10
2011,10,22,13,14,11.10
2011,10,22,13,15,11.10
2011,10,22,13,16,11.10
2011,10,22,13,17,11.00
2011,10,22,13,18,11.00
2011,10,22,13,19,11.00
2011,10,22,13,20,11.00
2011,10,22,13,21,11.10
2011,10,22,13,22,11.10
2011,10,22,13,23,11.10
2011,10,22,13,24,11.10
2011,10,22,13,25,11.10
2011,10,22,13,26,11.10
2011,10,22,13,27,11.10
2011,10,22,13,28,11.10
2011,10,22,13,29,11.10
2011,10,22,13,30,11.10
2011,10,22,13,31,11.10
2011,10,22,13,32,11.10
2011,10,22,13,33,11.10
2011,10,22,13,34,11.20
2011,10,22,13,35,11.20
2011,10,22,13,36,11.20
2011,10,22,13,37,11.20
2011,10,22,13,38,11.20
2011,10,22,13,39,11.20
2011,10,22,13,40,11.20
2011,10,22,13,41,11.20
2011,10,22,13,42,11.20
2011,10,22,13,43,11.20
2011,10,22,13,44,11.10
2011,10,22,13,45,11.10
2011,10,22,13,46,11.10
2011,10,22,13,47,11.20
2011,10,22,13,48,11.20
2011,10,22,13,49,11.20
2011,10,22,13,50,11.20
2011,10,22,13,51,11.20
2011,10,22,13,52,11.20
2011,10,22,13,53,11.30
2011,10,22,13,54,11.20
2011,10,22,13,55,11.20
2011,10,22,13,56,11.20
2011,10,22,13,57,11.20
2011,10,22,13,58,11.20
2011,10,22,13,59,11.20
2011,10,22,14,00,11.20
2011,10,22,14,01,11.20
2011,10,22,14,02,11.20
2011,10,22,14,03,11.20
2011,10,22,14,04,11.20
2011,10,22,14,05,11.20
2011,10,22,14,06,11.20
2011,10,22,14,07,11.20
2011,10,22,14,08,11.20
2011,10,22,14,09,11.20
2011,10,22,14,10,11.30
2011,10,22,14,11,11.30
2011,10,22,14,12,11.30
2011,10,22,14,13,11.30
2011,10,22,14,14,11.30
2011,10,22,14,15,11.30
2011,10,22,14,16,11.30
2011,10,22,14,17,11.30
2011,10,22,14,18,11.40
2011,10,22,14,19,11.50
2011,10,22,14,20,11.50
2011,10,22,14,21,11.60
2011,10,22,14,22,11.70
2011,10,22,14,23,11.80
2011,10,22,14,24,11.90
2011,10,22,14,25,11.90
2011,10,22,14,26,11.90
2011,10,22,14,27,11.90
2011,10,22,14,28,11.90
2011,10,22,14,29,11.90
2011,10,22,14,30,11.90
2011,10,22,14,31,12.00
2011,10,22,14,32,12.00
2011,10,22,14,33,12.10
2011,10,22,14,34,12.20
2011,10,22,14,35,12.20
2011,10,22,14,36,12.30
2011,10,22,14,37,12.30
2011,10,22,14,38,12.30
2011,10,22,14,39,12.30
2011,10,22,14,40,12.30
2011,10,22,14,41,12.40
2011,10,22,14,42,12.40
2011,10,22,14,43,12.40
2011,10,22,14,44,12.50
2011,10,22,14,45,12.50
2011,10,22,14,46,12.60
2011,10,22,14,47,12.70
2011,10,22,14,48,12.70
2011,10,22,14,49,12.70
2011,10,22,14,50,12.60
2011,10,22,14,51,12.60
2011,10,22,14,52,12.50
2011,10,22,14,53,12.40
2011,10,22,14,54,12.40
2011,10,22,14,55,12.30
2011,10,22,14,56,12.30
2011,10,22,14,57,12.20
2011,10,22,14,58,12.20
2011,10,22,14,59,12.20
2011,10,22,15,00,12.20
2011,10,22,15,01,12.20
2011,10,22,15,02,12.20
2011,10,22,15,03,12.20
2011,10,22,15,04,12.20
2011,10,22,15,05,12.20
2011,10,22,15,06,12.20
2011,10,22,15,07,12.30
2011,10,22,15,08,12.30
2011,10,22,15,09,12.30
2011,10,22,15,10,12.20
2011,10,22,15,11,12.20
2011,10,22,15,12,12.10
2011,10,22,15,13,12.00
2011,10,22,15,14,12.00
2011,10,22,15,15,11.90
2011,10,22,15,16,11.90
2011,10,22,15,17,11.80
2011,10,22,15,18,11.80
2011,10,22,15,19,11.80
2011,10,22,15,20,11.80
2011,10,22,15,21,11.80
2011,10,22,15,22,11.80
2011,10,22,15,23,11.80
2011,10,22,15,24,11.70
2011,10,22,15,25,11.70
2011,10,22,15,26,11.70
2011,10,22,15,27,11.70
2011,10,22,15,28,11.70
2011,10,22,15,29,11.70
2011,10,22,15,30,11.70
2011,10,22,15,31,11.70
2011,10,22,15,32,11.70
2011,10,22,15,33,11.70
2011,10,22,15,34,11.80
2011,10,22,15,35,11.70
2011,10,22,15,36,11.70
2011,10,22,15,37,11.80
2011,10,22,15,38,11.80
2011,10,22,15,39,11.80
2011,10,22,15,40,11.80
2011,10,22,15,41,11.80
2011,10,22,15,42,11.80
2011,10,22,15,43,11.90
2011,10,22,15,44,11.90
2011,10,22,15,45,11.90
2011,10,22,15,46,11.90
2011,10,22,15,47,12.00
2011,10,22,15,48,12.00
2011,10,22,15,49,12.10
2011,10,22,15,50,12.10
2011,10,22,15,51,12.10
2011,10,22,15,52,12.10
2011,10,22,15,53,12.10
2011,10,22,15,54,12.10
2011,10,22,15,55,12.20
2011,10,22,15,56,12.20
2011,10,22,15,57,12.20
2011,10,22,15,58,12.30
2011,10,22,15,59,12.30
2011,10,22,16,00,12.30
2011,10,22,16,01,12.30
2011,10,22,16,02,12.40
2011,10,22,16,03,12.40
2011,10,22,16,04,12.40
2011,10,22,16,05,12.40
2011,10,22,16,06,12.40
2011,10,22,16,07,12.40
2011,10,22,16,08,12.50
2011,10,22,16,09,12.50
2011,10,22,16,10,12.40
2011,10,22,16,11,12.40
2011,10,22,16,12,12.30
2011,10,22,16,13,12.20
2011,10,22,16,14,12.20
2011,10,22,16,15,12.10
2011,10,22,16,16,12.10
2011,10,22,16,17,12.00
2011,10,22,16,18,12.00
2011,10,22,16,19,11.90
2011,10,22,16,20,11.90
2011,10,22,16,21,11.90
2011,10,22,16,22,11.90
2011,10,22,16,23,11.90
2011,10,22,16,24,11.80
2011,10,22,16,25,11.80
2011,10,22,16,26,11.80
2011,10,22,16,27,11.70
2011,10,22,16,28,11.70
2011,10,22,16,29,11.60
2011,10,22,16,30,11.60
2011,10,22,16,31,11.60
2011,10,22,16,32,11.50
2011,10,22,16,33,11.40
2011,10,22,16,34,11.40
2011,10,22,16,35,11.40
2011,10,22,16,36,11.40
2011,10,22,16,37,11.40
2011,10,22,16,38,11.40
2011,10,22,16,39,11.30
2011,10,22,16,40,11.30
2011,10,22,16,41,11.30
2011,10,22,16,42,11.20
2011,10,22,16,43,11.20
2011,10,22,16,44,11.20
2011,10,22,16,45,11.10
2011,10,22,16,46,11.10
2011,10,22,16,47,11.10
2011,10,22,16,48,11.10
2011,10,22,16,49,11.10
2011,10,22,16,50,11.10
2011,10,22,16,51,11.10
2011,10,22,16,52,11.10
2011,10,22,16,53,11.10
2011,10,22,16,54,11.10
2011,10,22,16,55,11.10
2011,10,22,16,56,11.10
2011,10,22,16,57,11.10
2011,10,22,16,58,11.10
2011,10,22,16,59,11.10
2011,10,22,17,00,11.10
2011,10,22,17,01,11.10
2011,10,22,17,02,11.20
2011,10,22,17,03,11.20
2011,10,22,17,04,11.20
2011,10,22,17,05,11.20
2011,10,22,17,06,11.20
2011,10,22,17,07,11.20
2011,10,22,17,08,11.20
2011,10,22,17,09,11.20
2011,10,22,17,10,11.10
2011,10,22,17,11,11.10
2011,10,22,17,12,11.10
2011,10,22,17,13,11.10
2011,10,22,17,14,11.10
2011,10,22,17,15,11.00
2011,10,22,17,16,11.00
2011,10,22,17,17,11.00
2011,10,22,17,18,11.00
2011,10,22,17,19,10.90
2011,10,22,17,20,10.90
2011,10,22,17,21,10.90
2011,10,22,17,22,10.90
2011,10,22,17,23,10.90
2011,10,22,17,24,10.90
2011,10,22,17,25,10.90
2011,10,22,17,26,10.90
2011,10,22,17,27,10.90
2011,10,22,17,28,10.90
2011,10,22,17,29,10.90
2011,10,22,17,30,10.90
2011,10,22,17,31,10.90
2011,10,22,17,32,10.90
2011,10,22,17,33,10.90
2011,10,22,17,34,10.90
2011,10,22,17,35,10.90
2011,10,22,17,36,10.90
2011,10,22,17,37,10.90
2011,10,22,17,38,10.90
2011,10,22,17,39,10.90
2011,10,22,17,40,10.90
2011,10,22,17,41,10.90
2011,10,22,17,42,10.90
2011,10,22,17,43,10.90
2011,10,22,17,44,10.90
2011,10,22,17,45,10.90
2011,10,22,17,46,10.90
2011,10,22,17,47,10.90
2011,10,22,17,48,10.90
2011,10,22,17,49,10.90
2011,10,22,17,50,10.90
2011,10,22,17,51,10.90
2011,10,22,17,52,10.90
2011,10,22,17,53,10.90
2011,10,22,17,54,10.90
